Find Starlink 32556

NORAD ID: 61858 Int'l Des: 2024-202 Owner: SPXS Country: US Constellation: starlink operational
LEOCIRCULAR

リアルタイム位置

3D地球を読み込み中...

Starlink 32556について

説明を読み込み中...

次回通過

Passes for default location (London). Set your location on the main map for personalized predictions.

高度履歴

Loading altitude history...

軌道要素

1 61858U 24202P 26127.11361991 -.00015858 00000-0 -56686-3 0 9990
2 61858 43.0038 267.9730 0001655 223.7200 136.3520 15.27643702 84273
Epoch: May 7, 2026 • Age: 6 hours

現在のステータス

高度 484.9 km
速度 7.63 km/s
衛星直下点 31.79°N, 55.76°W
打ち上げ日 Nov 7, 2024
運用期間 1.4 years
タイプ internet

技術仕様

分類 Payload
質量 730.00 kg
乾燥質量 700.00 kg
総質量 730.00 kg
長さ 0.30 m
直径 4.10 m
スパン 29.00 m
形状 Box + pan
製造者 SPXS
バスタイプ Starlink V2M
フェーズステータス In Orbit
所有者/国 SPXS/US

Most Searched